EWG702 EDDM-EKCH

Flight info

Callsign EWG702
Flight time N/A
Altitude 34000
Route INPUD2N/26R INPUD Y102 UPALA M726 LASGA/N0424F350 DCT BKD/N0428F360 DCT LUWIL DCT BERIM/N0422F350 DCT MAKEL N851 GESKA Z711 MONAK MONAK5C
Aircraft A320/M-SDE3FGHIRWY/LB1

Departure

Time 2026-05-04 07:58
Airport Munich Airport (EDDM)

Arrival

Time N/A
Airport Copenhagen Kastrup Airport (EKCH)
Time Latitude Longitude Altitude Speed Heading
2026-05-04 07:38 48.35221 11.78335 1480 ft 0 kts 92°
2026-05-04 07:46 48.35221 11.78325 1479 ft 2 kts 91°
2026-05-04 07:46 48.35221 11.78295 1478 ft 2 kts 88°
2026-05-04 07:46 48.35220 11.78265 1473 ft 3 kts 87°
2026-05-04 07:46 48.35220 11.78239 1474 ft 2 kts 89°
2026-05-04 07:47 48.35218 11.78212 1469 ft 2 kts 57°
2026-05-04 07:47 48.35204 11.78193 1467 ft 3 kts 15°
2026-05-04 07:47 48.35191 11.78189 1472 ft 0 kts
2026-05-04 07:49 48.35254 11.78178 1478 ft 16 kts 353°
2026-05-04 07:49 48.35348 11.78120 1478 ft 12 kts 285°
2026-05-04 07:49 48.35341 11.77978 1469 ft 17 kts 263°
2026-05-04 07:50 48.35353 11.77800 1476 ft 17 kts 320°
2026-05-04 07:50 48.35466 11.77760 1471 ft 17 kts 347°
2026-05-04 07:50 48.35591 11.77736 1473 ft 19 kts 352°
2026-05-04 07:50 48.35693 11.77723 1475 ft 10 kts 355°
2026-05-04 07:51 48.35707 11.77721 1475 ft 0 kts 354°
2026-05-04 07:51 48.35714 11.77720 1475 ft 5 kts 354°
2026-05-04 07:51 48.35758 11.77713 1475 ft 6 kts 353°
2026-05-04 07:51 48.35840 11.77699 1468 ft 22 kts 353°
2026-05-04 07:52 48.35990 11.77671 1464 ft 17 kts 352°
2026-05-04 07:52 48.36080 11.77737 1472 ft 17 kts 72°
2026-05-04 07:52 48.36102 11.77968 1472 ft 26 kts 83°
2026-05-04 07:52 48.36122 11.78246 1461 ft 27 kts 84°
2026-05-04 07:53 48.36142 11.78532 1464 ft 28 kts 84°
2026-05-04 07:54 48.36300 11.80566 1464 ft 28 kts 83°
2026-05-04 07:55 48.36322 11.80861 1463 ft 28 kts 83°
2026-05-04 07:55 48.36345 11.81157 1462 ft 28 kts 83°
2026-05-04 07:55 48.36367 11.81454 1458 ft 29 kts 83°
2026-05-04 07:55 48.36389 11.81738 1460 ft 27 kts 83°
2026-05-04 07:56 48.36398 11.81963 1459 ft 18 kts 73°
2026-05-04 07:56 48.36497 11.81997 1458 ft 16 kts 350°
2026-05-04 07:56 48.36607 11.81969 1456 ft 16 kts 351°
2026-05-04 07:56 48.36666 11.81852 1459 ft 15 kts 265°
2026-05-04 07:57 48.36646 11.81546 1461 ft 58 kts 264°
2026-05-04 07:57 48.36578 11.80656 1464 ft 111 kts 263°
2026-05-04 07:57 48.36475 11.79295 1474 ft 148 kts 264°
2026-05-04 07:57 48.36365 11.77787 1958 ft 140 kts 264°
2026-05-04 07:58 48.36259 11.76319 2347 ft 146 kts 264°
2026-05-04 07:58 48.36145 11.74765 2746 ft 152 kts 264°
2026-05-04 07:58 48.36025 11.73151 3129 ft 157 kts 265°
2026-05-04 07:58 48.35901 11.71489 3530 ft 164 kts 265°
2026-05-04 07:59 48.35772 11.69734 3909 ft 175 kts 268°
2026-05-04 07:59 48.35935 11.67911 4253 ft 180 kts 293°
2026-05-04 07:59 48.36631 11.66357 4635 ft 182 kts 319°
2026-05-04 07:59 48.37734 11.65429 5039 ft 186 kts 346°
2026-05-04 08:00 48.39030 11.65050 5418 ft 193 kts 349°
2026-05-04 08:00 48.40372 11.64628 5803 ft 200 kts 340°
2026-05-04 08:00 48.41559 11.63592 6275 ft 200 kts 316°
2026-05-04 08:02 48.49559 11.51863 9374 ft 267 kts 313°
2026-05-04 08:02 48.50905 11.49896 10067 ft 272 kts 313°
2026-05-04 08:02 48.52271 11.47884 10742 ft 276 kts 313°
2026-05-04 08:03 48.53648 11.45853 11429 ft 279 kts 313°
2026-05-04 08:03 48.55067 11.43824 12022 ft 284 kts 313°
2026-05-04 08:03 48.56691 11.42007 12458 ft 300 kts 334°
2026-05-04 08:03 48.58750 11.41168 12936 ft 312 kts 346°
2026-05-04 08:04 48.60899 11.40530 13409 ft 316 kts 347°
2026-05-04 08:04 48.63071 11.39894 13881 ft 320 kts 346°
2026-05-04 08:04 48.65265 11.39251 14320 ft 322 kts 346°
2026-05-04 08:04 48.67470 11.38600 14747 ft 324 kts 346°
2026-05-04 08:05 48.69660 11.37947 15178 ft 325 kts 346°
2026-05-04 08:05 48.71916 11.37269 15636 ft 328 kts 346°
2026-05-04 08:05 48.74132 11.36599 16078 ft 329 kts 346°
2026-05-04 08:05 48.76390 11.35913 16581 ft 332 kts 346°
2026-05-04 08:06 48.78661 11.35225 17098 ft 334 kts 346°
2026-05-04 08:06 48.80948 11.34531 17623 ft 337 kts 346°
2026-05-04 08:06 48.83256 11.33831 18164 ft 339 kts 346°
2026-05-04 08:06 48.85582 11.33125 18659 ft 342 kts 346°
2026-05-04 08:08 49.02213 11.28055 22131 ft 354 kts 346°
2026-05-04 08:08 49.04629 11.27316 22661 ft 355 kts 346°
2026-05-04 08:10 49.24118 11.22155 25970 ft 372 kts 357°
2026-05-04 08:11 49.26729 11.22185 26223 ft 378 kts 357°
2026-05-04 08:11 49.32068 11.22230 26736 ft 389 kts 356°
2026-05-04 08:11 49.34801 11.22248 27000 ft 395 kts 356°
2026-05-04 08:12 49.37565 11.22267 27262 ft 400 kts 356°
2026-05-04 08:12 49.39420 11.22282 27439 ft 404 kts 356°